KOSEN 1
1 49402U 21102H   25311.55707573  .00011814  00000-0  50736-3 0  9995
2 49402  97.3519 353.1908 0013242 269.7099  90.2620 15.22762296220249
HO-113
1 50466U 21131B   25311.86435348  .00000963  00000-0  31315-3 0  9996
2 50466  98.5069  40.4610 0004880  54.2638 305.9004 14.41036491203237
SNUGLITE 2
1 52899U 22065F   25311.66630058  .00002067  00000-0  40628-3 0  9992
2 52899  98.1907  92.4066 0007522   8.1100 352.0222 14.63681949178588
UmKA 1 (RS40S)
1 57172U 23091G   25311.80158014  .00010379  00000-0  52025-3 0  9993
2 57172  97.5388   6.4258 0014169 164.6630 195.5036 15.17455412130396
CubeBel-2 (EU11S)
1 57175U 23091K   25311.77654642  .00019153  00000-0  82056-3 0  9996
2 57175  97.5386   8.5910 0011563 167.7787 192.3732 15.22758223130533
ENSO
1 58470U 23185J   25311.57812016  .03390385  24053-5  15466-2 0  9999
2 58470  97.3374  34.6046 0008943 272.9419  87.0848 16.21904864108724
SONATE-2
1 59112U 24043Q   25311.32681122  .00032546  00000-0  75016-3 0  9990
2 59112  97.5322  86.3317 0008892 294.6387  65.3933 15.42486026 93517
MO-122
1 60209U 24125G   25311.54998350  .00039351  00000-0  87877-3 0  9997
2 60209  97.2561 161.9632 0014851 318.6379  41.3744 15.43314214 75174
GRBBeta
1 60237U 24128C   25311.45980801  .00007934  00000-0  56236-3 0  9990
2 60237  61.9909 272.9270 0057144  89.1127 271.6512 15.04225731 72881
Curium One
1 60242U 24128H   25311.59604326  .00014973  00000-0  94626-3 0  9992
2 60242  61.9804 268.1208 0057016  85.7716 274.9891 15.07926593 72987
ROBUSTA-3A
1 60243U 24128J   25311.45242683  .00014007  00000-0  90118-3 0  9992
2 60243  61.9877 270.0107 0056932  83.2561 277.5006 15.07321706 72943
CatSat
1 60246U 24125J   25311.82095851  .00045652  00000-0  12243-2 0  9998
2 60246  97.2376 159.6522 0034563 274.2405  85.4890 15.37217665 73152
HYPERVIEW-1G (RS66S)
1 61772U 24199AP  25311.85565734  .00056825  00000-0  12311-2 0  9999
2 61772  97.3247 180.9404 0012172  18.7095 341.4598 15.44169560100226
AO-123
1 61781U 24199AY  25311.84641341  .00016408  00000-0  54837-3 0  9990
2 61781  97.3280 177.6962 0015986  26.9460 333.2608 15.30960317100009
ZIMSAT 2
1 61783U 24199BA  25311.90601113  .00156903  00000-0  19121-2 0  9993
2 61783  97.3164 183.5001 0009499  18.6958 341.4646 15.59923560103550
HADES-R (SO-124)
1 62690U 25009CK  25311.25907845  .00119252  00000-0  23013-2 0  9992
2 62690  97.3950  32.8301 0003176 259.1703 100.9189 15.47375888 45271
HYDRA-T
1 62692U 25009CM  25311.20141421  .00129387  00000-0  24222-2 0  9992
2 62692  97.3947  32.9068 0003070 253.2332 106.8582 15.48215932 45272
JINJUSat 1B
1 63210U 25052A   25311.43905354  .00022585  00000-0  90445-3 0  9998
2 63210  97.4207 203.8544 0005133 125.1922 234.9797 15.25048651 36202
NUSHSAT 1
1 63211U 25052B   25311.25901758  .00026011  00000-0  10165-2 0  9991
2 63211  97.4193 203.7548 0004854 128.7646 231.4027 15.25839166 36185
TEVEL2-4
1 63213U 25052D   25311.24568566  .00024287  00000-0  96543-3 0  9996
2 63213  97.4112 203.3643 0003659 132.9787 227.1758 15.25287926 36178
TEVEL2-5
1 63214U 25052E   25311.24962941  .00024134  00000-0  96099-3 0  9999
2 63214  97.4113 203.3600 0003601 135.6786 224.4741 15.25232116 36172
TEVEL2-6
1 63215U 25052F   25311.45264993  .00024637  00000-0  98203-3 0  9992
2 63215  97.4114 203.5510 0003616 135.8235 224.3292 15.25192974 36204
TEVEL2-1
1 63217U 25052H   25311.68505174  .00024644  00000-0  99057-3 0  9994
2 63217  97.4087 203.6207 0003224 146.0594 214.0850 15.24912482 36238
TEVEL2-3
1 63218U 25052J   25311.42220354  .00023132  00000-0  93013-3 0  9998
2 63218  97.4089 203.3645 0003210 147.3748 212.7688 15.24913246 36192
TEVEL2-2
1 63219U 25052K   25311.22649405  .00022854  00000-0  91968-3 0  9996
2 63219  97.4090 203.1666 0003205 148.3295 211.8136 15.24889852 36168
TEVEL2-9
1 63237U 25052AD  25311.68116270  .00023295  00000-0  97618-3 0  9993
2 63237  97.4151 203.3710 0006160 188.6858 171.4273 15.23508569 36203
TEVEL2-7
1 63238U 25052AE  25311.42916740  .00022022  00000-0  92691-3 0  9999
2 63238  97.4158 203.1024 0006160 189.6420 170.4699 15.23370090 36165
TEVEL2-8
1 63239U 25052AF  25311.23712139  .00023336  00000-0  98294-3 0  9999
2 63239  97.4152 202.8989 0006150 190.8983 169.2121 15.23334443 36138
HYDRA-W
1 63490U 25052BL  25311.25088177  .00073274  00000-0  21125-2 0  9992
2 63490  97.4077 204.6824 0007440 173.8912 186.2423 15.35418373 36263
HADES-ICM (SO-125)
1 63492U 25052BN  25311.66475697  .00068565  00000-0  20597-2 0  9995
2 63492  97.4093 204.9125 0007740 179.8349 180.2898 15.34139571 36318
Dragonfly
1 65729U 98067XH  25311.70706605  .00126744  00000-0  14615-2 0  9995
2 65729  51.6306 313.6086 0004176  90.9333 269.2139 15.61014545  7678
RSP-03
1 65732U 98067XL  25311.72397896  .00109285  00000-0  13238-2 0  9990
2 65732  51.6306 313.7221 0006143  69.5291 290.6361 15.59789651  7685
GHS-01
1 65733U 98067XM  25311.56781682  .00142011  00000-0  15829-2 0  9995
2 65733  51.6312 314.1799 0004606  88.6896 271.4626 15.61831291  7663
BOTAN
1 65942U 98067XP  25311.26661794  .00083017  00000-0  12070-2 0  9990
2 65942  51.6320 317.4148 0004757  34.2370 325.8927 15.55038987  4332
